Regional Weather Roundup
Issued by NWS

Home | Current Version | Previous Version | Text Only | Print | Product List | Glossary Off
Versions: 1 2 3 4 5 6 7 8 9 10 11 12 13 14 15 16 17 18 19 20 21 22 23 24 25 26 27 28 29 30 31 32 33 34 35 36 37 38 39 40 41 42 43 44 45 46 47 48 49 50

000
ASUS43 KIND 231009
RWRIN

WEATHER ROUNDUP FOR INDIANA
NATIONAL WEATHER SERVICE INDIANAPOLIS IN
600 AM EDT THU MAR 23 2017

NOTE: "FAIR" INDICATES FEW OR NO CLOUDS BELOW 12,000 FEET WITH NO
SIGNIFICANT WEATHER AND/OR OBSTRUCTIONS TO VISIBILITY.

* - STATION DOES NOT REPORT WEATHER SUCH AS PRECIPITATION OR FOG.

+ - STATION NOT QUALITY CONTROLLED BY THE NATIONAL WEATHER SERVICE.
    USE DATA WITH CAUTION...ESPECIALLY DEWPOINT AND RELATIVE
    HUMIDITY OBSERVATIONS.

INZ001>003-010>013-019-020-231100-
NORTHWEST INDIANA

CITY           SKY/WX    TMP DP  RH WIND       PRES   REMARKS
GARY /AIRPORT/ PTCLDY    32  18  55 SE9       30.44S WCI  24
KNOX *+        PTCLDY    27   5  39 SE6       30.44S WCI  20
LA PORTE +     MOCLDY    27  20  76 SE7       30.44S WCI  19
MICHIGAN CITY+ PTCLDY    28  19  69 SE5       30.44S WCI  23
MONTICELLO +   PTCLDY    28  20  69 E8        30.42S WCI  20
RENSSELAER +     N/A     30  23  74 E10       30.42S WCI  21
VALPARAISO     CLOUDY    27  20  75 E7        30.44S WCI  19

$$

LMZ046-743>745-231100-
SOUTHERN LAKE MICHIGAN

STATION/POSITION TIME  TEMP    WIND        PRES    WAVE
                       AIR SEA DIR/SP/G            HT
                 (UTC) (F)     (DEG/KT/KT) (MB)    (FT)
BURNS HARBOR     0940   31     150/ 10/ 17 1030.8S
MICHIGAN CITY    0940   29     130/ 11/ 14   N/A

$$

INZ004-005-014>016-021>024-231100-
NORTH CENTRAL INDIANA

CITY           SKY/WX    TMP DP  RH WIND       PRES   REMARKS
GOSHEN         PTCLDY    25  14  63 SE7       30.46F WCI  17
LOGANSPORT +   PTCLDY    27  19  74 E10       30.45R WCI  17
PERU/GRISSOM   CLOUDY    27  18  68 E9        30.42F WCI  18
ROCHESTER +    CLOUDY    30  19  64 E9        30.45S WCI  22
SOUTH BEND     CLOUDY    25  17  72 E9        30.45F WCI  15
WARSAW +       PTCLDY    27  18  69 E8        30.46S WCI  18

$$

INZ006>009-017-018-025>027-231100-
NORTHEAST INDIANA

CITY           SKY/WX    TMP DP  RH WIND       PRES   REMARKS
ANGOLA *+      CLEAR     21  12  68 SE7       30.47S WCI  13
AUBURN +       CLOUDY    23  16  74 E5        30.49S WCI  17
FORT WAYNE     CLOUDY    24  16  71 E9        30.48S WCI  14
HUNTINGTON +   CLOUDY    24  15  68 E6        30.47R WCI  17
KENDALLVILLE + CLOUDY    23  16  74 SE7       30.47S WCI  14

$$

INZ028-029-035-036-043>045-051>053-231100-
WEST CENTRAL INDIANA

CITY           SKY/WX    TMP DP  RH WIND       PRES   REMARKS
CRAWFORDSVL +  CLOUDY    26  22  85 E9        30.39F WCI  17
GREENCASTLE +  CLOUDY    28  21  74 E9        30.40S WCI  20
LAFAYETTE      CLOUDY    28  22  78 E9        30.42F WCI  19
TERRE HAUTE    CLOUDY    30  21  69 E7        30.39F WCI  23

$$

INZ030>032-037>040-046>048-054>057-064-065-231100-
CENTRAL INDIANA

CITY           SKY/WX    TMP DP  RH WIND       PRES   REMARKS
CP ATTERBURY + PTCLDY    30  21  69 E7        30.42F WCI  23
FISHERS *+     CLOUDY    27  23  86 CALM      30.42F
FRANKFORT +    MOCLDY    30  24  79 SE10      30.43R WCI  21
GREENWOOD *+   PTCLDY    29  21  73 E8        30.41F WCI  21
INDIANAPOLIS   CLOUDY    29  19  66 E12       30.41F WCI  19
-EAGLE CREEK   CLOUDY    29  18  63 E9        30.41F WCI  20
KOKOMO +       CLOUDY    26  20  77 E10       30.44F WCI  16
MARION +       CLOUDY    26  17  68 E9        30.44F WCI  17
MT COMFORT *+  CLOUDY    27  19  74 E9        30.41F WCI  17
SHELBYVILLE    CLOUDY    29  19  66 E10       30.41F WCI  20
ZIONSVILLE +   MOCLDY    27  20  77 E8        30.42S WCI  18

$$

INZ033-034-041-042-049-050-058-059-231100-
EAST CENTRAL INDIANA

CITY           SKY/WX    TMP DP  RH WIND       PRES   REMARKS
MUNCIE         CLOUDY    27  20  75 E9        30.44S WCI  18
RICHMOND +     CLOUDY    25  19  80 E12       30.43S WCI  14

$$

INZ060-061-067>069-081>083-085>088-231100-
SOUTHWEST INDIANA

CITY           SKY/WX    TMP DP  RH WIND       PRES   REMARKS
EVANSVILLE     CLEAR     33  23  66 NE7       30.36S WCI  27
HUNTINGBURG *+ CLEAR     33  20  58 E7        30.36F WCI  27
WASHINGTON +   CLEAR     32  20  62 MISG      30.36F

$$

INZ062-063-066-070>080-084-089>092-231100-
SOUTH CENTRAL AND SOUTHEAST INDIANA

CITY           SKY/WX    TMP DP  RH WIND       PRES   REMARKS
BEDFORD +      CLOUDY    30  19  64 E7        30.38F WCI  23
BLOOMINGTON    CLOUDY    30  18  60 E9        30.38F WCI  22
MADISON *+     CLOUDY    32  19  59 E10       30.42S WCI  24
NORTH VERNON + CLOUDY    30  19  64 E7        30.42S WCI  23
SEYMOUR +      CLOUDY    28  21  74 E6        30.41F WCI  22

$$





USA.gov is the U.S. government's official web portal to all federal, state and local government web resources and services.